Location: Aranbee
(34.0885°N, 118.2342°W)
Time: 20:04:19
(UTC+00:00)

X-37B - Visible Passes

Search period start: 16 January 2022 00:00
Search period end: 26 January 2022 00:00
Orbit: 334 x 337 km, 45.0° (Epoch: 11 January)

Date Brightness Start Highest point End Pass type
(mag) Time Alt. Az. Time Alt. Az. Time Alt. Az.
16 Jan 2.5 13:04:11 27° ESE 13:04:11 27° ESE 13:05:40 10° ESE visible
17 Jan 1.8 13:24:02 28° S 13:24:02 28° S 13:25:52 10° SSE visible
18 Jan 3.0 13:43:59 10° SSW 13:43:59 10° SSW 13:44:10 10° SSW visible
23 Jan 3.0 02:38:42 10° S 02:39:00 11° SSE 02:39:00 11° SSE visible
24 Jan 2.4 02:57:44 10° SW 02:59:02 23° SSW 02:59:02 23° SSW visible
25 Jan 2.6 01:44:10 10° SSE 01:45:39 13° SE 01:47:07 10° ESE visible
25 Jan 3.3 03:18:06 10° WSW 03:18:59 18° WSW 03:18:59 18° WSW visible
